When you browse on this site, cookies collect data to enhance your experience and personalize the content and advertising you see.
Visit our Privacy Policy to learn more. By continuing to use the site, you agree to this use of cookies and data.
  • In Hungary
  • List of Countries
  • For 7 days
  • Water Temperature
  • Satellite Maps
  • Weather Map
  • News
  • Weather Widgets
  • user-avatar
    Login

    Hourly Weather Kuantan

    Today, 21 November, Wednesday

    Time Temperature Precipitation Wind Pressure Humidity
    00:00 +26°C° 0 mm 1 mps 755 mmHg 92%
    01:00 +26°C° 0 mm 1 mps 755 mmHg 92%
    02:00 +26°C° 0 mm 1 mps 754 mmHg 92%
    03:00 +26°C° 0 mm 1 mps 754 mmHg 92%
    04:00 +26°C° 0 mm 1 mps 754 mmHg 92%
    05:00 +26°C° 0.5 mm 1 mps 754 mmHg 91%
    06:00 +26°C° 0.5 mm 1 mps 754 mmHg 90%
    07:00 +27°C° 0.5 mm 1 mps 755 mmHg 89%
    08:00 +29°C° 0.2 mm 1 mps 755 mmHg 78%
    09:00 +32°C° 0.2 mm 1 mps 755 mmHg 67%
    10:00 +34°C° 0.2 mm 1 mps 755 mmHg 57%
    11:00 +34°C° 0.8 mm 1 mps 755 mmHg 62%
    12:00 +34°C° 0.8 mm 2 mps 754 mmHg 68%
    13:00 +32°C° 0.8 mm 2 mps 753 mmHg 73%
    14:00 +31°C° 0.9 mm 2 mps 753 mmHg 77%
    15:00 +31°C° 0.9 mm 2 mps 753 mmHg 81%
    16:00 +30°C° 0.9 mm 2 mps 752 mmHg 85%
    17:00 +29°C° 0.6 mm 2 mps 753 mmHg 88%
    18:00 +28°C° 0.6 mm 2 mps 753 mmHg 91%
    19:00 +27°C° 0.6 mm 1 mps 754 mmHg 94%
    20:00 +26°C° 1.4 mm 1 mps 754 mmHg 94%
    21:00 +26°C° 1.4 mm 1 mps 755 mmHg 94%
    22:00 +26°C° 1.4 mm 1 mps 755 mmHg 94%
    23:00 +26°C° 1 mm 1 mps 755 mmHg 95%

    Tomorrow, 22 November, Thursday

    Time Temperature Precipitation Wind Pressure Humidity
    00:00 +26°C° 1 mm 1 mps 755 mmHg 95%
    01:00 +25°C° 1 mm 1 mps 755 mmHg 95%
    02:00 +25°C° 0.3 mm 1 mps 754 mmHg 95%
    03:00 +25°C° 0.3 mm 2 mps 754 mmHg 95%
    04:00 +25°C° 0.3 mm 2 mps 753 mmHg 95%
    05:00 +25°C° 0.3 mm 2 mps 754 mmHg 94%
    06:00 +26°C° 0.3 mm 2 mps 754 mmHg 93%
    07:00 +26°C° 0.3 mm 2 mps 755 mmHg 91%
    08:00 +28°C° 0.3 mm 2 mps 755 mmHg 80%
    09:00 +31°C° 0.3 mm 2 mps 755 mmHg 69%
    10:00 +34°C° 0.3 mm 2 mps 756 mmHg 57%
    11:00 +34°C° 0.9 mm 2 mps 755 mmHg 59%
    12:00 +34°C° 0.9 mm 2 mps 755 mmHg 60%
    13:00 +34°C° 0.9 mm 3 mps 754 mmHg 62%
    14:00 +34°C° 0.9 mm 3 mps 754 mmHg 69%
    15:00 +33°C° 0.9 mm 3 mps 753 mmHg 75%
    16:00 +31°C° 0.9 mm 3 mps 753 mmHg 82%
    17:00 +29°C° 0.5 mm 3 mps 753 mmHg 86%
    18:00 +28°C° 0.5 mm 2 mps 754 mmHg 90%
    19:00 +27°C° 0.5 mm 2 mps 755 mmHg 93%
    20:00 +27°C° 0.7 mm 2 mps 755 mmHg 94%
    21:00 +26°C° 0.7 mm 2 mps 756 mmHg 94%
    22:00 +26°C° 0.7 mm 2 mps 756 mmHg 95%
    23:00 +26°C° 0.2 mm 2 mps 756 mmHg 95%

    Day after tomorrow, 23 November, Friday

    Time Temperature Precipitation Wind Pressure Humidity
    00:00 +26°C° 0.2 mm 2 mps 756 mmHg 95%
    01:00 +26°C° 0.2 mm 2 mps 755 mmHg 95%
    02:00 +25°C° 0 mm 2 mps 755 mmHg 95%
    03:00 +25°C° 0 mm 2 mps 755 mmHg 95%
    04:00 +25°C° 0 mm 2 mps 754 mmHg 95%
    05:00 +25°C° 0 mm 2 mps 755 mmHg 94%
    06:00 +26°C° 0 mm 2 mps 755 mmHg 93%
    07:00 +26°C° 0 mm 2 mps 756 mmHg 92%
    08:00 +28°C° 0 mm 1 mps 756 mmHg 81%
    09:00 +31°C° 0 mm 1 mps 756 mmHg 70%
    10:00 +33°C° 0 mm 1 mps 757 mmHg 60%
    11:00 +34°C° 0.1 mm 1 mps 756 mmHg 58%
    12:00 +35°C° 0.1 mm 2 mps 755 mmHg 56%
    13:00 +36°C° 0.1 mm 2 mps 755 mmHg 55%
    14:00 +34°C° 0.9 mm 2 mps 754 mmHg 64%
    15:00 +32°C° 0.9 mm 2 mps 754 mmHg 74%
    16:00 +30°C° 0.9 mm 2 mps 753 mmHg 83%
    17:00 +29°C° 0.6 mm 2 mps 754 mmHg 86%
    18:00 +28°C° 0.6 mm 1 mps 754 mmHg 89%
    19:00 +27°C° 0.6 mm 1 mps 755 mmHg 91%
    20:00 +27°C° 0 mm 1 mps 755 mmHg 92%
    21:00 +26°C° 0 mm 1 mps 756 mmHg 92%
    22:00 +26°C° 0 mm 1 mps 756 mmHg 93%
    23:00 +26°C° 0 mm 1 mps 756 mmHg 93%

    24 November, Saturday

    Time Temperature Precipitation Wind Pressure Humidity
    00:00 +26°C° 0 mm 1 mps 755 mmHg 93%
    01:00 +26°C° 0 mm 1 mps 755 mmHg 94%
    02:00 +26°C° 0.3 mm 2 mps 755 mmHg 94%
    03:00 +25°C° 0.3 mm 2 mps 754 mmHg 94%
    04:00 +25°C° 0.3 mm 2 mps 754 mmHg 94%
    05:00 +26°C° 0 mm 2 mps 754 mmHg 93%
    06:00 +26°C° 0 mm 2 mps 755 mmHg 92%
    07:00 +26°C° 0 mm 2 mps 755 mmHg 90%
    08:00 +29°C° 0 mm 1 mps 755 mmHg 79%
    09:00 +32°C° 0 mm 1 mps 755 mmHg 68%
    10:00 +35°C° 0 mm 1 mps 756 mmHg 57%
    11:00 +35°C° 0.3 mm 1 mps 755 mmHg 57%
    12:00 +35°C° 0.3 mm 1 mps 754 mmHg 57%
    13:00 +36°C° 0.3 mm 2 mps 753 mmHg 58%
    14:00 +35°C° 0.6 mm 2 mps 753 mmHg 66%
    15:00 +32°C° 0.6 mm 2 mps 753 mmHg 73%
    16:00 +31°C° 0.6 mm 2 mps 752 mmHg 81%
    17:00 +30°C° 0.3 mm 2 mps 753 mmHg 85%
    18:00 +29°C° 0.3 mm 1 mps 753 mmHg 88%
    19:00 +27°C° 0.3 mm 1 mps 754 mmHg 92%
    20:00 +27°C° 0.3 mm 1 mps 754 mmHg 92%
    21:00 +27°C° 0.3 mm 1 mps 755 mmHg 92%
    22:00 +27°C° 0.3 mm 1 mps 755 mmHg 93%
    23:00 +27°C° 0.6 mm 1 mps 755 mmHg 93%

    25 November, Sunday

    Time Temperature Precipitation Wind Pressure Humidity
    00:00 +26°C° 0.6 mm 1 mps 755 mmHg 94%
    01:00 +26°C° 0.6 mm 1 mps 754 mmHg 95%
    02:00 +26°C° 0.3 mm 1 mps 754 mmHg 95%
    03:00 +26°C° 0.3 mm 1 mps 754 mmHg 95%
    04:00 +26°C° 0.3 mm 1 mps 753 mmHg 94%
    05:00 +26°C° 0 mm 1 mps 754 mmHg 93%
    06:00 +26°C° 0 mm 1 mps 754 mmHg 92%
    07:00 +27°C° 0 mm 1 mps 755 mmHg 91%
    08:00 +28°C° 0.8 mm 1 mps 755 mmHg 86%
    09:00 +30°C° 0.8 mm 1 mps 755 mmHg 81%
    10:00 +29°C° 0.8 mm 0 mps 756 mmHg 76%
    11:00 +32°C° 1.1 mm 1 mps 755 mmHg 73%
    12:00 +33°C° 1.1 mm 1 mps 754 mmHg 70%
    13:00 +33°C° 1.1 mm 1 mps 753 mmHg 66%
    14:00 +33°C° 1.2 mm 1 mps 753 mmHg 73%
    15:00 +32°C° 1.2 mm 1 mps 753 mmHg 79%
    16:00 +31°C° 1.2 mm 1 mps 752 mmHg 85%
    17:00 +30°C° 0.9 mm 1 mps 753 mmHg 87%
    18:00 +28°C° 0.9 mm 1 mps 753 mmHg 89%
    19:00 +27°C° 0.9 mm 1 mps 754 mmHg 90%
    20:00 +27°C° 0.9 mm 1 mps 754 mmHg 91%
    21:00 +25°C° 0.9 mm 0 mps 755 mmHg 92%
    22:00 +25°C° 0.9 mm 0 mps 755 mmHg 93%
    23:00 +24°C° 0.5 mm 0 mps 755 mmHg 93%

    26 November, Monday

    Time Temperature Precipitation Wind Pressure Humidity
    00:00 +24°C° 0.5 mm 0 mps 754 mmHg 94%
    01:00 +24°C° 0.5 mm 0 mps 754 mmHg 95%
    02:00 +26°C° 1.7 mm 1 mps 754 mmHg 95%
    03:00 +26°C° 1.7 mm 1 mps 754 mmHg 96%
    04:00 +25°C° 1.7 mm 1 mps 754 mmHg 96%
    05:00 +26°C° 1.3 mm 1 mps 754 mmHg 95%
    06:00 +26°C° 1.3 mm 1 mps 755 mmHg 94%
    07:00 +26°C° 1.3 mm 1 mps 755 mmHg 93%
    08:00 +28°C° 0.8 mm 1 mps 755 mmHg 89%
    09:00 +29°C° 0.8 mm 1 mps 755 mmHg 85%
    10:00 +30°C° 0.8 mm 1 mps 756 mmHg 81%
    11:00 +31°C° 1 mm 1 mps 755 mmHg 81%
    12:00 +31°C° 1 mm 1 mps 754 mmHg 80%
    13:00 +31°C° 1 mm 1 mps 754 mmHg 79%
    14:00 +31°C° 0.7 mm 1 mps 753 mmHg 82%
    15:00 +30°C° 0.7 mm 2 mps 753 mmHg 84%
    16:00 +30°C° 0.7 mm 2 mps 753 mmHg 87%
    17:00 +29°C° 0.7 mm 2 mps 753 mmHg 89%
    18:00 +28°C° 0.7 mm 1 mps 754 mmHg 91%
    19:00 +27°C° 0.7 mm 1 mps 755 mmHg 93%
    20:00 +26°C° 0.5 mm 1 mps 755 mmHg 94%
    21:00 +26°C° 0.5 mm 1 mps 755 mmHg 94%
    22:00 +26°C° 0.5 mm 1 mps 756 mmHg 94%
    23:00 +26°C° 0.2 mm 1 mps 755 mmHg 94%
    Show more